This is the latest recevied weather packets stored in our database for station/object K5KHP. If no packets are shown the sender has not sent any weather packets the latest 10 day(s).
| Time | Temp. | Humidity | Pressure | Rain* | Wind** | Luminosity | Snow |
|---|---|---|---|---|---|---|---|
| 1778170730 | 18.89° C | 76% | 1015.8 hPa | 0 mm | - | 394 W/m² | - |
| 1778170427 | 17.78° C | 79% | 1015.7 hPa | 0 mm | - | 382 W/m² | - |
| 1778170123 | 17.78° C | 79% | 1015.8 hPa | 0 mm | - | 352 W/m² | - |
| 1778169819 | 17.78° C | 79% | 1015.6 hPa | 0 mm | - | 327 W/m² | - |
| 1778169515 | 17.78° C | 80% | 1015.9 hPa | 0 mm | - | 286 W/m² | - |
| 1778169211 | 17.78° C | 79% | 1015.7 hPa | 0 mm | - | 277 W/m² | - |
| 1778168908 | 17.78° C | 80% | 1016.1 hPa | 0 mm | - | 265 W/m² | - |
| 1778168606 | 17.78° C | 81% | 1015.9 hPa | 0 mm | - | 251 W/m² | - |
| 1778168302 | 17.22° C | 81% | 1015.8 hPa | 0 mm | - | 70 W/m² | - |
| 1778167998 | 17.22° C | 82% | 1016 hPa | 0 mm | - | 234 W/m² | - |
| 1778167695 | 16.67° C | 83% | 1016 hPa | 0 mm | - | 221 W/m² | - |
| 1778167391 | 16.67° C | 82% | 1016 hPa | 0 mm | - | 80 W/m² | - |
| 1778167088 | 17.22° C | 81% | 1016 hPa | 0 mm | - | 196 W/m² | - |
| 1778166784 | 17.22° C | 82% | 1016 hPa | 0 mm | - | 184 W/m² | - |
| 1778166481 | 17.22° C | 81% | 1016.3 hPa | 0 mm | - | 172 W/m² | - |
| 1778166178 | 16.67° C | 83% | 1016 hPa | 0 mm | - | 154 W/m² | - |
| 1778165874 | 16.11° C | 84% | 1016 hPa | 0 mm | - | 148 W/m² | - |
| 1778165570 | 16.11° C | 85% | 1016 hPa | 0 mm | - | 139 W/m² | - |
| 1778165267 | 15.56° C | 85% | 1016.1 hPa | 0 mm | - | 130 W/m² | - |
| 1778164965 | 15.56° C | 85% | 1016.1 hPa | 0 mm | - | 117 W/m² | - |
| 1778164661 | 15.56° C | 84% | 1016 hPa | 0 mm | - | 111 W/m² | - |
| 1778164359 | 15° C | 86% | 1015.9 hPa | 0 mm | - | 101 W/m² | - |
| 1778164055 | 14.44° C | 88% | 1015.9 hPa | 0 mm | - | 80 W/m² | - |
| 1778163751 | 13.89° C | 88% | 1015.9 hPa | 0 mm | - | 67 W/m² | - |
| 1778163448 | 13.89° C | 87% | 1015.9 hPa | 0 mm | - | 58 W/m² | - |
* Rain latest hour (hover to see other rain measurements)
** Current wind speed in m/s (hover to see current wind gust speed)